Temperature
12 12 12 12 12 12 12 12 13 13 13 12 12 12 12 12 12 12 12 12 12 12 12 12 12 12 12 12 12 12 12 12 12 12 12 12 12 12
12 12 12 12 12 12 12 12 12 12 13 12 12 12 12 11 12 11 11 12 12 12 12 12 12 12 12 12 12 12 12 12 12 12 12 12 12 12
12 12 12 12 12 12 12 11 12 12 12 12 11 11 11 11 11 11 11 11 11 11 12 12 12 12 12 12 12 12 12 12 12 12 12 11 11 11
12 12 12 12 12 12 11 11 11 11 11 11 11 11 11 11 11 11 11 11 11 11 11 11 11 11 11 11 11 11 11 11 11 11 11 11 11 11
11 11 12 12 11 11 11 11 11 11 11 11 11 11 10 10 10 10 10 10 10 11 11 11 11 11 11 11 11 11 11 11 11 11 11 11 11 11
11 11 11 11 11 11 11 11 11 11 11 11 11 10 10 10 10 10 10 10 10 10 10 10 10 10 11 11 11 11 11 11 11 11 11 11 11 11
11 11 11 11 11 11 11 11 11 11 10 10 10 10 10 10 10 10 9 9 9 10 10 10 10 10 10 10 10 10 10 10 10 10 11 10 10 10
11 11 11 11 11 11 11 11 11 10 10 10 10 10 10 9 9 9 9 9 9 9 9 9 9 9 9 9 10 10 10 10 10 10 10 10 10 10
10 10 10 10 10 10 10 10 10 10 10 10 10 10 9 9 9 9 9 9 9 9 9 9 9 9 9 9 9 9 9 9 9 10 10 10 10 10
10 10 10 10 10 10 10 10 10 10 9 9 9 9 9 9 9 9 9 8 8 9 8 8 8 8 8 9 9 9 9 9 9 9 9 9 9 9
9 9 9 9 10 10 9 9 9 9 9 9 9 9 9 9 9 8 8 8 8 8 8 8 8 8 8 8 8 8 9 9 9 9 9 9 9 9
9 9 9 9 9 9 9 9 9 9 9 9 9 9 9 9 9 8 8 8 8 7 8 8 7 7 7 7 7 8 8 8 8 8 8 8 8 8
8 8 9 9 9 9 9 8 8 8 8 8 8 8 8 8 8 8 8 7 7 7 7 7 7 7 7 7 7 7 7 7 7 7 8 8 8 8
8 8 8 8 8 8 8 8 8 8 8 8 7 7 7 7 7 7 7 7 7 7 7 7 7 7 6 6 6 6 6 6 7 7 7 7 7 7
8 8 8 8 8 8 8 8 8 7 7 7 7 7 7 7 7 7 7 7 7 6 6 6 6 6 6 6 6 6 6 6 6 6 6 6 6 6
7 7 7 7 7 7 7 7 7 7 7 7 7 6 6 7 7 7 6 6 6 6 6 6 6 6 6 6 6 6 6 5 5 5 5 5 5 5
7 7 7 7 7 7 6 6 6 6 6 6 6 6 6 6 6 6 6 6 6 6 6 6 6 5 5 5 5 5 5 5 5 5 5 5 5 5
7 6 6 6 6 6 6 6 6 6 6 6 6 6 5 5 5 5 6 6 5 5 5 5 5 5 5 5 5 5 5 5 5 5 5 4 4 5
6 6 6 6 6 5 5 5 5 5 5 5 5 5 5 5 5 5 5 5 5 5 5 4 5 4 4 4 4 5 4 4 4 4 4 4 4 4
6 5 5 5 5 5 5 5 5 5 5 5 5 5 4 4 5 5 5 5 4 4 4 4 4 4 4 4 4 4 4 4 4 4 4 4 4 4
5 5 5 5 5 5 5 4 4 4 4 4 4 4 4 4 4 4 4 4 4 4 4 4 4 4 4 3 3 4 4 4 3 3 3 3 3 3
5 5 4 4 4 4 4 4 4 4 4 4 4 4 4 4 4 4 4 4 4 4 3 3 3 3 3 3 3 3 3 3 3 3 3 3 2 2
4 4 4 4 4 4 4 3 3 4 4 4 4 4 3 3 3 3 3 3 3 3 3 3 3 3 3 3 3 2 2 2 2 2 3 3 2 2
Wind_Speed
2 2 2 1 2 2 2 3 3 2 1 1 1 1 0 0 1 1 0 3 3 2 2 2 3 3 3 2 2 1 2 3 3 3 3 3 2 2
2 2 2 2 2 2 3 3 4 3 2 1 1 1 1 1 1 1 1 3 2 2 2 2 2 2 2 2 2 2 1 2 3 4 3 3 2 2
3 3 3 3 2 2 3 3 3 3 3 2 1 1 1 1 1 1 0 0 1 2 2 2 2 1 1 1 2 2 2 1 2 2 3 3 3 3
3 3 3 2 3 3 3 4 4 4 4 3 2 1 2 1 1 1 1 1 0 2 2 2 1 1 1 2 2 2 1 2 1 2 2 2 1 1
4 4 4 3 4 3 3 4 3 3 3 4 2 1 2 2 1 1 1 1 1 1 2 2 1 1 2 1 1 1 2 2 1 1 1 1 1 1
4 4 4 4 4 4 3 4 3 3 3 3 2 2 2 2 2 2 1 1 1 1 0 1 2 2 1 1 1 1 1 1 2 2 1 1 1 1
4 3 3 2 3 2 3 3 3 3 3 3 3 2 2 2 3 2 2 2 1 1 1 1 1 1 1 2 2 2 1 1 1 2 2 2 1 2
4 3 3 3 2 1 1 2 2 3 4 4 3 4 3 3 3 3 3 3 2 1 2 2 1 1 1 1 1 2 2 2 1 1 2 2 1 2
4 4 3 3 3 4 3 3 2 2 3 4 5 4 4 3 3 4 4 4 3 2 2 3 2 3 2 0 3 3 3 2 1 1 1 1 1 1
3 4 4 4 3 4 4 3 3 3 3 4 4 4 3 3 4 4 4 3 2 1 2 3 3 3 3 2 3 4 4 3 2 1 1 1 1 2
4 4 4 4 1 3 4 4 4 2 1 1 2 2 2 1 2 3 3 4 3 3 3 3 3 3 3 3 3 5 5 4 3 2 2 1 1 3
3 3 3 3 2 3 5 4 4 3 2 2 3 3 3 3 5 5 4 4 4 3 3 3 3 3 3 3 2 3 3 4 5 4 4 3 3 3
4 3 2 3 2 3 4 4 3 3 3 3 3 3 3 3 4 4 4 4 4 4 2 3 3 4 4 3 3 3 3 3 3 4 5 5 5 4
4 3 2 3 2 3 3 2 1 2 3 3 3 3 3 3 3 3 4 4 4 4 3 4 3 4 4 4 3 3 3 3 3 3 4 5 6 7
3 1 1 3 3 3 2 3 3 3 4 4 4 3 3 3 3 2 3 3 3 3 4 5 4 4 4 5 4 3 4 4 4 4 4 4 4 4
3 2 3 3 3 2 2 3 4 3 3 3 3 3 2 2 2 3 3 3 3 3 3 4 5 5 5 4 4 4 4 4 4 4 4 5 5 6
3 3 3 3 3 3 3 3 3 3 3 3 3 3 3 3 3 3 3 3 4 4 3 3 3 3 4 5 5 5 5 5 5 5 5 6 6 6
4 4 4 4 4 4 4 4 4 4 4 4 3 4 4 4 3 3 3 4 4 4 4 3 3 3 3 3 4 5 5 4 5 5 5 6 7 6
4 4 4 4 4 4 4 4 4 4 4 4 4 4 4 4 4 4 4 4 4 4 4 3 3 4 5 5 4 5 5 5 5 5 6 6 7 7
4 4 4 4 4 4 4 4 4 4 4 4 4 4 4 4 4 4 4 5 5 4 4 4 4 5 6 6 5 4 6 6 5 5 5 6 6 6
4 4 5 4 4 4 4 4 4 4 4 4 5 5 5 5 5 5 5 5 5 5 5 5 5 5 5 4 4 4 4 6 6 6 6 6 6 6
5 5 4 5 4 4 4 4 4 4 5 5 5 5 5 5 5 6 5 5 5 5 6 5 3 3 4 5 6 6 5 4 5 7 8 8 6 5
5 5 4 4 5 4 4 5 6 5 5 5 5 5 5 5 5 5 5 5 5 5 5 5 4 4 5 6 6 6 7 6 4 5 6 8 12 13
Wind_Direction
276 267 269 276 273 276 269 270 274 267 245 197 183 166 171 6 26 288 31 81 61 49 63 63 57 67 74 77 85 175 190 182 188 192 193 191 190 187
265 273 269 264 258 259 260 261 270 278 272 221 212 193 182 221 264 280 42 90 73 62 71 87 73 67 69 72 69 75 128 189 201 201 197 194 197 210
235 251 260 263 249 243 249 248 254 260 258 249 210 200 212 240 203 256 230 242 97 89 72 83 86 77 117 109 87 95 99 127 174 186 188 195 207 211
246 248 257 251 250 257 254 251 248 249 249 246 225 225 244 248 232 244 266 302 330 98 97 95 100 107 110 116 109 106 126 118 103 108 129 143 154 191
249 250 255 255 251 251 251 255 250 241 242 241 235 232 250 240 228 239 254 266 262 151 148 153 154 134 104 113 120 126 122 130 134 127 139 138 146 236
249 252 258 257 260 260 249 248 246 235 225 230 232 226 232 236 233 231 239 254 280 265 291 206 168 161 146 151 161 176 174 170 180 182 184 183 218 250
242 246 260 290 314 294 266 248 234 233 226 222 225 232 228 218 235 234 238 236 263 289 273 246 204 212 198 192 199 186 177 188 213 218 210 209 233 267
237 239 240 233 225 209 313 327 290 248 244 237 233 234 243 240 234 232 235 239 242 247 254 268 246 243 241 248 119 144 157 164 172 210 215 206 215 244
243 244 242 248 238 224 203 203 230 282 284 258 250 248 248 238 225 228 233 239 246 228 245 259 252 248 236 161 124 145 153 150 146 157 148 193 197 221
252 251 245 245 239 242 227 222 231 237 244 249 254 260 260 241 225 231 236 239 257 224 241 261 259 251 244 218 153 162 171 172 176 191 200 187 215 237
245 250 247 245 218 249 243 232 229 230 180 231 279 296 336 284 226 218 217 223 242 233 224 255 269 265 253 240 198 185 189 190 191 193 188 189 228 244
244 238 234 248 211 229 236 235 235 242 235 231 232 234 246 209 203 223 225 232 244 241 220 239 262 266 263 247 239 217 214 201 199 200 200 212 234 250
235 234 216 173 182 204 243 244 251 264 244 241 242 237 234 220 211 223 232 238 242 251 218 220 248 252 257 257 248 248 239 234 223 222 215 214 224 246
239 240 214 150 181 209 230 244 251 248 238 238 238 232 229 226 223 224 228 233 250 264 234 226 250 253 256 264 263 245 247 244 239 242 242 221 221 229
244 243 152 160 186 210 221 226 222 235 233 235 237 236 235 232 227 229 227 217 239 253 249 243 248 249 251 263 268 258 255 255 247 249 251 248 246 242
235 191 176 183 206 231 220 224 234 237 237 242 243 241 238 231 229 231 235 219 227 238 241 240 243 244 248 255 264 264 256 252 245 247 247 253 251 246
224 223 221 217 224 228 229 229 232 231 231 235 231 234 235 238 242 235 236 233 237 242 237 238 241 246 255 262 259 263 262 257 252 246 246 248 251 249
213 223 223 226 230 232 232 232 232 231 232 234 232 233 234 239 241 239 234 233 237 244 246 238 229 237 254 265 257 264 267 263 259 252 249 253 255 251
214 229 232 233 234 234 236 238 241 239 234 230 231 233 237 240 241 240 239 239 240 242 244 238 234 239 252 265 253 225 259 267 263 254 249 253 261 263
223 230 235 237 237 234 233 236 240 238 235 232 231 234 235 237 240 242 241 242 242 244 244 237 235 243 251 266 279 273 243 258 262 263 262 264 271 274
230 236 239 242 244 243 239 236 235 237 239 234 234 236 235 235 239 242 243 238 240 243 244 247 248 245 257 265 269 271 265 245 255 263 269 266 270 269
236 240 242 245 246 246 243 240 238 237 241 239 238 238 238 238 241 243 245 242 240 245 252 258 254 237 239 246 259 271 276 270 254 251 255 256 259 261
239 241 243 242 242 243 243 242 243 244 243 240 239 241 242 241 243 244 244 244 245 247 250 252 245 237 242 248 259 267 272 273 271 270 266 251 251 259
Height
1535 1535 1534 1534 1534 1534 1534 1535 1536 1535 1535 1534 1534 1533 1532 1532 1531 1531 1530 1529 1529 1528 1528 1528 1528 1528 1528 1528 1528 1528 1529 1529 1529 1530 1530 1530 1530 1531
1533 1533 1533 1533 1533 1532 1532 1533 1533 1534 1533 1533 1532 1532 1531 1531 1530 1530 1529 1528 1528 1527 1527 1527 1527 1527 1527 1527 1527 1527 1527 1527 1527 1528 1528 1529 1529 1529
1532 1532 1531 1531 1531 1531 1531 1531 1531 1532 1532 1531 1531 1530 1530 1529 1529 1528 1528 1527 1527 1526 1526 1525 1526 1526 1526 1525 1525 1525 1525 1525 1525 1526 1526 1527 1527 1527
1530 1530 1529 1529 1529 1529 1529 1529 1529 1529 1530 1529 1529 1528 1528 1528 1527 1527 1527 1526 1525 1525 1524 1524 1524 1524 1524 1524 1524 1524 1524 1524 1524 1524 1524 1525 1525 1526
1527 1527 1527 1527 1527 1527 1527 1527 1527 1527 1527 1527 1527 1526 1526 1526 1525 1525 1525 1524 1524 1523 1523 1523 1522 1522 1522 1522 1522 1522 1522 1522 1522 1522 1523 1523 1524 1524
1525 1524 1524 1524 1524 1524 1524 1524 1524 1524 1524 1524 1524 1523 1523 1523 1523 1523 1523 1522 1522 1522 1521 1521 1520 1520 1520 1520 1520 1520 1520 1520 1520 1520 1521 1521 1521 1522
1522 1521 1521 1521 1521 1521 1521 1521 1521 1521 1521 1521 1521 1521 1521 1520 1521 1521 1521 1520 1520 1519 1519 1519 1518 1518 1518 1517 1517 1517 1517 1517 1517 1518 1518 1518 1518 1519
1518 1518 1518 1517 1517 1517 1517 1517 1517 1518 1518 1518 1518 1518 1518 1518 1518 1518 1518 1518 1518 1517 1517 1517 1516 1516 1516 1515 1515 1515 1515 1515 1515 1515 1515 1515 1515 1516
1515 1515 1514 1514 1514 1514 1514 1514 1514 1514 1514 1515 1515 1515 1515 1515 1515 1515 1515 1515 1515 1515 1514 1514 1514 1513 1513 1512 1512 1512 1512 1512 1512 1512 1512 1512 1512 1513
1511 1511 1511 1511 1511 1511 1511 1511 1511 1511 1511 1511 1511 1512 1512 1512 1512 1512 1512 1512 1512 1512 1512 1512 1511 1511 1510 1510 1509 1509 1508 1508 1508 1508 1508 1509 1509 1509
1507 1507 1507 1508 1507 1507 1508 1508 1507 1507 1507 1507 1507 1508 1508 1508 1508 1509 1509 1509 1509 1509 1509 1509 1508 1507 1507 1506 1506 1505 1505 1505 1505 1505 1505 1505 1505 1505
1503 1503 1503 1504 1504 1504 1504 1504 1504 1504 1504 1504 1504 1504 1504 1504 1505 1505 1506 1506 1506 1506 1505 1505 1505 1505 1504 1504 1503 1502 1502 1502 1502 1501 1501 1501 1501 1501
1500 1500 1500 1500 1500 1500 1500 1500 1500 1501 1501 1501 1501 1501 1501 1501 1501 1501 1502 1502 1503 1502 1502 1502 1502 1502 1502 1501 1500 1499 1499 1498 1498 1498 1497 1497 1497 1497
1497 1496 1496 1496 1496 1497 1497 1497 1497 1497 1497 1497 1498 1497 1497 1497 1497 1497 1498 1498 1498 1499 1498 1498 1498 1498 1498 1497 1497 1496 1495 1495 1495 1494 1494 1493 1493 1493
1493 1493 1493 1493 1493 1493 1493 1493 1493 1493 1493 1494 1494 1493 1493 1493 1493 1493 1493 1494 1494 1494 1494 1494 1494 1494 1494 1494 1493 1492 1492 1491 1491 1490 1490 1489 1489 1488
1489 1489 1489 1489 1489 1489 1489 1489 1489 1489 1489 1489 1489 1490 1490 1489 1489 1489 1489 1489 1490 1490 1490 1490 1490 1490 1490 1489 1489 1488 1487 1487 1486 1486 1486 1485 1485 1484
1485 1485 1485 1485 1485 1485 1485 1485 1485 1485 1485 1485 1485 1485 1485 1485 1485 1485 1485 1485 1485 1485 1485 1485 1486 1485 1485 1485 1484 1484 1483 1482 1482 1482 1481 1481 1480 1480
1481 1481 1480 1480 1480 1480 1480 1480 1480 1480 1480 1481 1481 1481 1481 1481 1481 1481 1481 1481 1481 1481 1481 1481 1481 1481 1481 1480 1481 1479 1478 1478 1477 1477 1476 1476 1475 1476
1477 1477 1476 1476 1476 1476 1476 1476 1476 1476 1476 1476 1476 1477 1477 1477 1477 1477 1477 1477 1477 1477 1477 1477 1477 1477 1477 1476 1475 1475 1474 1473 1472 1471 1471 1471 1470 1470
1472 1472 1472 1472 1472 1472 1472 1471 1472 1472 1472 1472 1472 1473 1473 1473 1473 1473 1473 1473 1473 1473 1473 1473 1472 1472 1472 1472 1471 1470 1469 1468 1467 1466 1466 1466 1465 1465
1468 1468 1468 1468 1468 1468 1468 1467 1467 1467 1467 1468 1468 1468 1468 1468 1468 1468 1468 1468 1468 1468 1468 1468 1468 1468 1468 1467 1467 1465 1465 1464 1463 1462 1461 1461 1460 1459
1463 1463 1463 1463 1463 1463 1463 1463 1463 1463 1463 1463 1463 1463 1464 1464 1463 1464 1464 1464 1464 1464 1464 1464 1464 1464 1463 1463 1462 1461 1460 1459 1458 1457 1457 1456 1455 1454
1459 1459 1459 1459 1459 1458 1458 1458 1458 1458 1458 1458 1458 1458 1459 1459 1459 1459 1459 1459 1459 1459 1459 1459 1459 1459 1458 1458 1458 1457 1456 1455 1453 1452 1452 1451 1451 1449